User: anonymous   Login
Location: Caltech
(34.1382°N, 118.1253°W)
Time: 11:19:02
(UTC-07:00)
Language:

Iridium 95 - Orbit

View from above orbital plane
View from above orbital plane
View from above satellite
View from above satellite

Ground track
Ground track

The orbit data is extracted from the following two-line orbital elements,

1 27375U 02005D   16210.53898663  .00000030  00000-0  35459-5 0  9993
2 27375  86.3949  62.9005 0002270  85.1417 275.0037 14.34217396764522
Epoch (UTC): 28 July 2016 12:56:08
Eccentricity: 0.0002270
inclination: 86.3949°
perigee height: 776 km
apogee height: 779 km
right ascension of ascending node: 62.9005°
argument of perigee: 85.1417°
revolutions per day: 14.34217396
mean anomaly at epoch: 275.0037°
orbit number at epoch: 76452

The dashed part of the orbit path shows where the satellite is in the earth's shadow,  

DLR